TimeCST,TemperatureF,Dew PointF,Humidity,Sea Level PressureIn,VisibilityMPH,Wind Direction,Wind SpeedMPH,Gust SpeedMPH,PrecipitationIn,Events,Conditions,WindDirDegrees,DateUTC
12:53 AM,12.9,8.1,81,30.09,10.0,SSE,8.1,-,N/A,,Clear,160,2013-12-18 06:53:00
1:53 AM,18.0,10.9,74,30.04,10.0,SSE,9.2,-,N/A,,Clear,160,2013-12-18 07:53:00
2:53 AM,21.9,12.0,66,29.99,10.0,SSE,12.7,-,N/A,,Clear,150,2013-12-18 08:53:00
3:53 AM,25.0,15.1,66,29.94,10.0,South,15.0,-,N/A,,Clear,170,2013-12-18 09:53:00
4:53 AM,23.0,15.1,72,29.90,10.0,South,17.3,-,N/A,,Clear,170,2013-12-18 10:53:00
5:53 AM,21.9,14.0,72,29.86,10.0,South,11.5,-,N/A,,Clear,170,2013-12-18 11:53:00
6:53 AM,19.9,14.0,78,29.84,10.0,South,10.4,-,N/A,,Clear,170,2013-12-18 12:53:00
7:53 AM,18.0,12.9,81,29.81,10.0,South,6.9,-,N/A,,Clear,180,2013-12-18 13:53:00
8:53 AM,27.0,19.9,75,29.79,10.0,SSW,10.4,-,N/A,,Clear,200,2013-12-18 14:53:00
9:53 AM,32.0,24.1,73,29.80,10.0,SW,5.8,-,N/A,,Clear,220,2013-12-18 15:53:00
10:53 AM,35.1,26.1,70,29.78,10.0,SW,12.7,-,N/A,,Clear,230,2013-12-18 16:53:00
11:53 AM,37.0,27.0,67,29.77,10.0,WSW,12.7,-,N/A,,Clear,240,2013-12-18 17:53:00
12:53 PM,37.9,28.0,68,29.75,10.0,WSW,12.7,-,N/A,,Clear,240,2013-12-18 18:53:00
1:53 PM,39.0,28.9,67,29.73,10.0,SW,11.5,-,N/A,,Clear,230,2013-12-18 19:53:00
2:53 PM,39.0,28.9,67,29.74,10.0,West,6.9,-,N/A,,Clear,260,2013-12-18 20:53:00
3:53 PM,39.0,30.0,70,29.73,10.0,WSW,5.8,-,N/A,,Clear,250,2013-12-18 21:53:00
4:53 PM,35.1,28.9,78,29.75,10.0,SW,6.9,-,N/A,,Clear,220,2013-12-18 22:53:00
5:53 PM,34.0,28.9,82,29.76,10.0,WSW,4.6,-,N/A,,Clear,250,2013-12-18 23:53:00
6:53 PM,33.1,28.0,82,29.78,10.0,WSW,3.5,-,N/A,,Clear,240,2013-12-19 00:53:00
7:53 PM,30.0,27.0,88,29.79,10.0,South,3.5,-,N/A,,Clear,190,2013-12-19 01:53:00
8:53 PM,27.0,24.1,89,29.80,8.0,WNW,3.5,-,N/A,,Clear,290,2013-12-19 02:53:00
9:53 PM,24.1,21.9,91,29.82,10.0,NNW,8.1,-,N/A,,Clear,330,2013-12-19 03:53:00
10:53 PM,23.0,19.9,88,29.82,10.0,NW,3.5,-,N/A,,Clear,310,2013-12-19 04:53:00
11:53 PM,25.0,21.9,88,29.83,10.0,NNW,9.2,-,N/A,,Clear,330,2013-12-19 05:53:00